DLH62N KSAN-KRNO

Flight info

Callsign DLH62N
Flight time 1h 9m
Altitude 32000
Route PADRZ2 EHF SHERF TARVR2
Aircraft A320/M-SDE3FGHIRWY/LB1

Departure

Time 2026-05-04 14:41
Airport San Diego International Airport (KSAN)

Arrival

Time 2026-05-04 15:50
Airport Reno Tahoe International Airport (KRNO)
Time Latitude Longitude Altitude Speed Heading
2026-05-04 14:30 32.73221 -117.19372 27 ft 0 kts 196°
2026-05-04 14:35 32.73223 -117.19371 28 ft 6 kts 196°
2026-05-04 14:35 32.73252 -117.19363 28 ft 3 kts 192°
2026-05-04 14:35 32.73268 -117.19361 28 ft 2 kts 176°
2026-05-04 14:35 32.73278 -117.19365 28 ft 2 kts 128°
2026-05-04 14:36 32.73284 -117.19376 28 ft 2 kts 105°
2026-05-04 14:36 32.73287 -117.19388 30 ft 2 kts 102°
2026-05-04 14:36 32.73288 -117.19391 29 ft 0 kts 101°
2026-05-04 14:37 32.73287 -117.19389 29 ft 3 kts 102°
2026-05-04 14:37 32.73272 -117.19322 24 ft 9 kts 107°
2026-05-04 14:37 32.73255 -117.19258 26 ft 7 kts 107°
2026-05-04 14:38 32.73243 -117.19212 27 ft 6 kts 106°
2026-05-04 14:38 32.73213 -117.19084 28 ft 24 kts 106°
2026-05-04 14:38 32.73165 -117.18886 27 ft 25 kts 106°
2026-05-04 14:38 32.73116 -117.18686 29 ft 26 kts 105°
2026-05-04 14:39 32.73064 -117.18473 28 ft 24 kts 107°
2026-05-04 14:39 32.73102 -117.18373 27 ft 8 kts 92°
2026-05-04 14:39 32.73087 -117.18268 25 ft 19 kts 105°
2026-05-04 14:40 32.73006 -117.17938 21 ft 22 kts 104°
2026-05-04 14:40 32.72960 -117.17758 19 ft 24 kts 108°
2026-05-04 14:40 32.72975 -117.17601 25 ft 14 kts 51°
2026-05-04 14:40 32.73029 -117.17627 22 ft 0 kts 287°
2026-05-04 14:41 32.73073 -117.17794 21 ft 57 kts 286°
2026-05-04 14:41 32.73246 -117.18507 26 ft 119 kts 286°
2026-05-04 14:41 32.73875 -117.20877 850 ft 155 kts 297°
2026-05-04 14:42 32.75095 -117.23179 1823 ft 184 kts 303°
2026-05-04 14:42 32.75850 -117.24526 2124 ft 208 kts 303°
2026-05-04 14:42 32.76701 -117.26045 2542 ft 233 kts 303°
2026-05-04 14:43 32.77628 -117.27705 3162 ft 247 kts 303°
2026-05-04 14:43 32.78584 -117.29418 4060 ft 250 kts 303°
2026-05-04 14:43 32.79541 -117.31138 4945 ft 255 kts 303°
2026-05-04 14:43 32.80562 -117.32883 5786 ft 259 kts 305°
2026-05-04 14:44 32.81659 -117.34607 6638 ft 264 kts 306°
2026-05-04 14:44 32.82795 -117.36340 7438 ft 267 kts 306°
2026-05-04 14:44 32.83951 -117.38093 8270 ft 271 kts 305°
2026-05-04 14:44 32.85116 -117.39870 9173 ft 274 kts 303°
2026-05-04 14:45 32.86288 -117.41668 10037 ft 276 kts 302°
2026-05-04 14:45 32.87488 -117.43524 10479 ft 294 kts 302°
2026-05-04 14:45 32.88771 -117.45530 10777 ft 313 kts 302°
2026-05-04 14:45 32.90109 -117.47617 11390 ft 320 kts 302°
2026-05-04 14:46 32.91472 -117.49730 12109 ft 324 kts 302°
2026-05-04 14:46 32.92854 -117.51863 12863 ft 326 kts 301°
2026-05-04 14:46 32.94244 -117.54011 13593 ft 329 kts 301°
2026-05-04 14:46 32.95641 -117.56183 14261 ft 332 kts 300°
2026-05-04 14:47 32.97049 -117.58373 14778 ft 335 kts 300°
2026-05-04 14:47 32.98460 -117.60576 14936 ft 334 kts 300°
2026-05-04 14:47 32.99868 -117.62776 14977 ft 334 kts 300°
2026-05-04 14:47 33.01276 -117.64972 14986 ft 334 kts 300°
2026-05-04 14:48 33.02681 -117.67172 14979 ft 334 kts 300°
2026-05-04 14:48 33.04087 -117.69380 14978 ft 334 kts 300°
2026-05-04 14:48 33.05492 -117.71584 14979 ft 334 kts 300°
2026-05-04 14:48 33.07063 -117.73665 14978 ft 343 kts 310°
2026-05-04 14:49 33.08885 -117.75516 14973 ft 344 kts 312°
2026-05-04 14:49 33.10714 -117.77361 14973 ft 344 kts 311°
2026-05-04 14:49 33.12538 -117.79208 14973 ft 344 kts 311°
2026-05-04 14:49 33.14356 -117.81057 14973 ft 344 kts 311°
2026-05-04 14:50 33.16175 -117.82912 14976 ft 344 kts 311°
2026-05-04 14:50 33.17995 -117.84768 14976 ft 344 kts 311°
2026-05-04 14:50 33.19817 -117.86623 14986 ft 344 kts 312°
2026-05-04 14:50 33.21659 -117.88456 14977 ft 345 kts 313°
2026-05-04 14:51 33.23520 -117.90273 14976 ft 346 kts 313°
2026-05-04 14:51 33.25390 -117.92081 14975 ft 346 kts 313°
2026-05-04 14:51 33.27267 -117.93893 15064 ft 349 kts 313°
2026-05-04 14:51 33.29156 -117.95727 15721 ft 350 kts 313°
2026-05-04 14:52 33.31052 -117.97575 16379 ft 353 kts 312°
2026-05-04 14:52 33.32963 -117.99437 17008 ft 356 kts 312°
2026-05-04 14:52 33.34890 -118.01317 17630 ft 358 kts 311°
2026-05-04 14:52 33.36828 -118.03214 18250 ft 361 kts 311°
2026-05-04 14:53 33.38779 -118.05129 18797 ft 364 kts 311°
2026-05-04 14:53 33.40748 -118.07061 19290 ft 368 kts 310°
2026-05-04 14:53 33.42734 -118.09012 19787 ft 371 kts 310°
2026-05-04 14:53 33.44740 -118.10984 20299 ft 375 kts 310°
2026-05-04 14:54 33.46768 -118.12975 20820 ft 378 kts 309°
2026-05-04 14:54 33.48811 -118.14982 21295 ft 382 kts 309°
2026-05-04 14:54 33.50869 -118.17007 21757 ft 385 kts 309°
2026-05-04 14:54 33.52950 -118.19054 22220 ft 388 kts 309°
2026-05-04 14:55 33.55046 -118.21117 22682 ft 391 kts 308°
2026-05-04 14:55 33.57217 -118.23151 23125 ft 403 kts 314°
2026-05-04 14:55 33.59710 -118.24817 23644 ft 418 kts 323°
2026-05-04 14:55 33.62372 -118.26268 24042 ft 421 kts 323°
2026-05-04 14:56 33.65042 -118.27726 24414 ft 423 kts 323°
2026-05-04 14:56 33.66821 -118.28703 24655 ft 425 kts 323°
2026-05-04 14:56 33.69521 -118.30191 25034 ft 428 kts 323°
2026-05-04 14:56 33.72233 -118.31688 25399 ft 431 kts 322°
2026-05-04 14:57 33.74965 -118.33197 25747 ft 434 kts 323°
2026-05-04 14:57 33.78635 -118.35181 26255 ft 439 kts 324°
2026-05-04 14:57 33.80536 -118.36155 26534 ft 441 kts 324°
2026-05-04 14:57 33.83377 -118.37571 26899 ft 443 kts 324°
2026-05-04 14:58 33.86236 -118.38978 27305 ft 445 kts 324°
2026-05-04 14:58 33.89112 -118.40395 27700 ft 447 kts 324°
2026-05-04 14:58 33.91988 -118.41826 28051 ft 449 kts 324°
2026-05-04 14:58 33.94877 -118.43277 28394 ft 451 kts 324°
2026-05-04 14:59 33.97777 -118.44739 28720 ft 455 kts 325°
2026-05-04 14:59 34.00799 -118.45923 29121 ft 471 kts 333°
2026-05-04 14:59 34.07447 -118.47112 29847 ft 488 kts 340°
2026-05-04 15:00 34.10822 -118.47622 30169 ft 490 kts 340°
2026-05-04 15:00 34.14211 -118.48138 30447 ft 492 kts 340°
2026-05-04 15:00 34.17620 -118.48660 30691 ft 495 kts 340°
2026-05-04 15:01 34.24496 -118.49724 31110 ft 502 kts 340°
2026-05-04 15:01 34.27974 -118.50263 31355 ft 505 kts 340°
2026-05-04 15:01 34.31460 -118.50798 31721 ft 505 kts 340°
2026-05-04 15:01 34.34948 -118.51329 31984 ft 506 kts 339°
2026-05-04 15:02 34.41878 -118.52368 32054 ft 488 kts 339°
2026-05-04 15:02 34.48568 -118.53385 32028 ft 482 kts 339°
2026-05-04 15:03 34.55217 -118.54438 32031 ft 482 kts 339°
2026-05-04 15:03 34.61861 -118.55488 32032 ft 482 kts 339°
2026-05-04 15:04 34.68508 -118.56519 32029 ft 481 kts 339°
2026-05-04 15:04 34.75124 -118.57539 32018 ft 479 kts 339°
2026-05-04 15:05 34.81733 -118.58571 32010 ft 479 kts 339°
2026-05-04 15:05 34.88340 -118.59612 32017 ft 479 kts 339°
2026-05-04 15:06 34.94949 -118.60655 32021 ft 477 kts 337°
2026-05-04 15:06 34.98131 -118.61505 32025 ft 460 kts 328°
2026-05-04 15:07 35.03760 -118.64532 32025 ft 427 kts 313°
2026-05-04 15:07 35.06154 -118.66571 32069 ft 413 kts 305°
2026-05-04 15:07 35.08347 -118.68802 32069 ft 411 kts 305°
2026-05-04 15:08 35.12737 -118.73280 32044 ft 411 kts 305°
2026-05-04 15:08 35.17135 -118.77751 32020 ft 412 kts 305°
2026-05-04 15:09 35.21541 -118.82227 32025 ft 412 kts 305°
2026-05-04 15:09 35.25955 -118.86700 32058 ft 412 kts 306°
2026-05-04 15:10 35.32559 -118.93430 32056 ft 412 kts 306°
2026-05-04 15:11 35.39156 -119.00174 32060 ft 412 kts 306°
2026-05-04 15:11 35.43545 -119.04682 32066 ft 411 kts 306°
2026-05-04 15:12 35.48410 -119.08671 32034 ft 439 kts 323°
2026-05-04 15:12 35.51343 -119.09935 32035 ft 457 kts 334°
2026-05-04 15:12 35.54547 -119.10561 32034 ft 472 kts 342°
2026-05-04 15:13 35.61085 -119.11360 32036 ft 472 kts 342°
2026-05-04 15:13 35.67620 -119.12195 32075 ft 472 kts 343°
2026-05-04 15:14 35.74153 -119.13060 32075 ft 471 kts 343°
2026-05-04 15:14 35.80674 -119.13918 32069 ft 471 kts 343°
2026-05-04 15:15 35.87187 -119.14760 32091 ft 470 kts 343°
2026-05-04 15:15 35.93690 -119.15611 32092 ft 469 kts 343°
2026-05-04 15:16 36.03426 -119.16894 32085 ft 469 kts 343°
2026-05-04 15:17 36.13144 -119.18176 32100 ft 467 kts 344°
2026-05-04 15:17 36.22830 -119.19444 32086 ft 466 kts 344°
2026-05-04 15:18 36.29275 -119.20292 32095 ft 466 kts 344°
2026-05-04 15:19 36.38936 -119.21575 32083 ft 465 kts 344°
2026-05-04 15:19 36.48586 -119.22849 32083 ft 465 kts 344°
2026-05-04 15:20 36.55024 -119.23702 32062 ft 465 kts 344°
2026-05-04 15:20 36.61452 -119.24560 32035 ft 465 kts 344°
2026-05-04 15:21 36.67880 -119.25420 32067 ft 465 kts 344°
2026-05-04 15:22 36.77534 -119.26712 32030 ft 465 kts 344°
2026-05-04 15:22 36.87153 -119.27991 32017 ft 465 kts 344°
2026-05-04 15:23 36.93594 -119.28851 32008 ft 465 kts 344°
2026-05-04 15:23 37.00026 -119.29720 32005 ft 465 kts 344°
2026-05-04 15:24 37.12892 -119.31459 32009 ft 465 kts 344°
2026-05-04 15:25 37.19332 -119.32331 31988 ft 466 kts 344°
2026-05-04 15:26 37.29008 -119.33634 31995 ft 466 kts 345°
2026-05-04 15:26 37.38688 -119.34945 31980 ft 466 kts 345°
2026-05-04 15:27 37.48109 -119.37157 31996 ft 447 kts 328°
2026-05-04 15:28 37.56521 -119.41917 31994 ft 441 kts 326°
2026-05-04 15:29 37.64907 -119.46707 31957 ft 441 kts 326°
2026-05-04 15:30 37.84451 -119.57927 31272 ft 445 kts 328°
2026-05-04 15:31 37.90053 -119.61154 30301 ft 437 kts 331°
2026-05-04 15:31 37.92808 -119.62744 29711 ft 434 kts 332°
2026-05-04 15:32 38.00900 -119.67422 28256 ft 418 kts 333°
2026-05-04 15:32 38.06092 -119.70425 27333 ft 408 kts 334°
2026-05-04 15:33 38.11194 -119.73376 26435 ft 399 kts 338°
2026-05-04 15:34 38.19215 -119.75072 25013 ft 387 kts
2026-05-04 15:34 38.21932 -119.75148 24523 ft 384 kts
2026-05-04 15:34 38.27224 -119.75321 23603 ft 377 kts
2026-05-04 15:35 38.32395 -119.75498 22624 ft 371 kts
2026-05-04 15:35 38.34954 -119.75584 22220 ft 365 kts
2026-05-04 15:35 38.37482 -119.75669 21771 ft 361 kts
2026-05-04 15:36 38.42464 -119.75825 20888 ft 354 kts
2026-05-04 15:36 38.44919 -119.75902 20462 ft 352 kts
2026-05-04 15:36 38.47355 -119.75980 20029 ft 349 kts
2026-05-04 15:37 38.48992 -119.76033 19745 ft 348 kts
2026-05-04 15:37 38.51411 -119.76114 19321 ft 347 kts
2026-05-04 15:37 38.53789 -119.76192 18891 ft 346 kts
2026-05-04 15:37 38.56190 -119.76268 18473 ft 344 kts
2026-05-04 15:38 38.58611 -119.76343 18019 ft 343 kts
2026-05-04 15:38 38.60989 -119.76418 17582 ft 341 kts
2026-05-04 15:38 38.63349 -119.76494 17166 ft 339 kts
2026-05-04 15:38 38.65668 -119.76568 16759 ft 336 kts
2026-05-04 15:39 38.67986 -119.76646 16579 ft 329 kts
2026-05-04 15:39 38.70261 -119.76723 16249 ft 326 kts
2026-05-04 15:39 38.74782 -119.76872 15520 ft 324 kts
2026-05-04 15:40 38.77032 -119.76948 15162 ft 323 kts
2026-05-04 15:40 38.79272 -119.77019 14821 ft 322 kts
2026-05-04 15:40 38.81504 -119.77087 14487 ft 319 kts
2026-05-04 15:40 38.83715 -119.77126 14168 ft 317 kts
2026-05-04 15:41 38.85917 -119.77130 13847 ft 316 kts
2026-05-04 15:41 38.88108 -119.77117 13520 ft 314 kts
2026-05-04 15:41 38.90274 -119.77099 13296 ft 310 kts
2026-05-04 15:41 38.92422 -119.77083 13117 ft 308 kts
2026-05-04 15:42 38.94564 -119.77071 12826 ft 307 kts
2026-05-04 15:42 38.96695 -119.77061 12536 ft 305 kts
2026-05-04 15:42 38.98810 -119.77053 12246 ft 303 kts
2026-05-04 15:42 39.00918 -119.77046 11960 ft 302 kts
2026-05-04 15:43 39.03009 -119.77041 11668 ft 300 kts
2026-05-04 15:43 39.05088 -119.77037 11380 ft 298 kts
2026-05-04 15:43 39.07144 -119.77038 11195 ft 291 kts
2026-05-04 15:43 39.09134 -119.77040 11070 ft 281 kts
2026-05-04 15:44 39.11070 -119.77039 10898 ft 275 kts
2026-05-04 15:44 39.12967 -119.77035 10836 ft 272 kts
2026-05-04 15:44 39.14859 -119.77028 10777 ft 272 kts
2026-05-04 15:44 39.16751 -119.77021 10706 ft 271 kts
2026-05-04 15:45 39.18601 -119.77015 10612 ft 261 kts
2026-05-04 15:45 39.20389 -119.77007 10505 ft 255 kts
2026-05-04 15:45 39.22169 -119.76997 10164 ft 257 kts
2026-05-04 15:45 39.23956 -119.76992 9841 ft 257 kts
2026-05-04 15:46 39.25737 -119.76988 9589 ft 253 kts
2026-05-04 15:46 39.27479 -119.76984 9314 ft 250 kts
2026-05-04 15:46 39.29229 -119.76979 8921 ft 253 kts
2026-05-04 15:46 39.30996 -119.76974 8511 ft 255 kts
2026-05-04 15:47 39.32781 -119.76969 8100 ft 257 kts
2026-05-04 15:47 39.34543 -119.76966 7702 ft 244 kts
2026-05-04 15:47 39.36136 -119.76963 7326 ft 220 kts
2026-05-04 15:47 39.37603 -119.76958 7012 ft 201 kts
2026-05-04 15:48 39.38956 -119.76954 6718 ft 184 kts 360°
2026-05-04 15:48 39.40198 -119.76951 6450 ft 174 kts 359°
2026-05-04 15:48 39.42523 -119.76944 5927 ft 164 kts 358°
2026-05-04 15:49 39.43659 -119.76942 5680 ft 163 kts 358°
2026-05-04 15:49 39.44794 -119.76940 5421 ft 164 kts 359°
2026-05-04 15:49 39.45947 -119.76940 5140 ft 167 kts 360°
2026-05-04 15:49 39.47116 -119.76934 4853 ft 168 kts
2026-05-04 15:50 39.48277 -119.76932 4554 ft 166 kts
2026-05-04 15:50 39.49399 -119.76931 4423 ft 152 kts
2026-05-04 15:50 39.50229 -119.76926 4419 ft 77 kts 359°
2026-05-04 15:50 39.50589 -119.76930 4422 ft 45 kts
2026-05-04 15:51 39.50889 -119.76925 4427 ft 42 kts
2026-05-04 15:51 39.51091 -119.76981 4424 ft 20 kts 280°
2026-05-04 15:51 39.51059 -119.77142 4425 ft 19 kts 206°
2026-05-04 15:51 39.50923 -119.77154 4423 ft 20 kts 180°
2026-05-04 15:52 39.50802 -119.77196 4424 ft 15 kts 233°
2026-05-04 15:52 39.50746 -119.77258 4422 ft 3 kts 200°